GFSFLT1_850_temp_159.txt.gz
Temp
7 6 5 5 5 5 6 6 8 7 6 5 5 5 4 4 3 3 3 2 4 6 4 4 6 6 4 5 4 4 5 7
7 5 5 5 4 4 4 4 5 5 4 4 4 4 4 4 3 2 2 2 1 1 3 4 2 2 4 4 2 2 2 4
6 6 5 4 3 3 3 3 2 3 3 3 3 2 3 3 2 2 2 2 2 1 2 3 4 3 3 2 3 2 2 3
7 5 5 4 3 2 2 2 2 4 6 2 2 2 3 3 2 2 3 2 2 2 2 1 1 1 2 1 1 0 1 2
7 6 5 4 2 2 2 1 1 1 2 0 0 1 1 1 0 1 0 0 -1 -1 3 2 -0 -1 -2 -0 1 1 -0 0
6 5 4 3 2 1 1 1 0 0 -0 0 -1 -1 -1 -1 -0 1 0 -1 -1 -2 -1 -1 -2 -2 -2 -1 -0 1 1 -1
5 3 3 2 1 1 0 0 -0 -1 -1 -2 -2 -2 -1 -2 -1 -1 -1 -2 -2 -3 -1 -2 -3 -4 -3 -3 -1 -1 -2 -2
4 4 3 1 0 -0 -0 -1 -1 -2 -2 -2 -2 -2 -3 -3 -3 -3 -3 -3 -4 -4 -4 -3 -3 -4 -4 -4 -3 -2 -3 -2
3 2 1 1 -0 -1 -1 -1 -1 -3 -3 -2 -2 -3 -3 -3 -4 -4 -4 -4 -4 -5 -5 -4 -5 -4 -4 -3 -3 -3 -3 -2
1 -0 -1 -1 -2 -2 -2 -2 -3 -3 -3 -3 -3 -3 -3 -4 -4 -5 -5 -5 -5 -5 -5 -5 -6 -5 -5 -4 -4 -4 -4 -3
-1 -2 -2 -3 -3 -3 -3 -4 -4 -4 -4 -4 -3 -4 -4 -4 -4 -5 -6 -6 -6 -4 -4 -6 -6 -6 -6 -5 -4 -5 -4 -5
-2 -1 -1 -1 -1 -3 -4 -3 -4 -2 -3 -5 -4 -5 -5 -5 -5 -6 -6 -6 -6 -4 -3 -5 -6 -6 -6 -5 -5 -6 -5 -6
-3 -4 -1 -2 -1 -1 -1 -2 -2 -2 -3 -3 -6 -6 -6 -6 -6 -6 -5 -6 -5 -4 -3 -4 -5 -6 -7 -6 -6 -7 -7 -7
-2 -4 -3 -3 -2 -2 -2 -2 -2 -3 -3 -3 -3 -5 -5 -6 -7 -7 -4 -5 -5 -5 -5 -5 -5 -7 -6 -5 -7 -7 -7 -8
-2 -3 -3 -3 -2 -2 -2 -3 -3 -3 -4 -4 -6 -5 -4 -5 -7 -7 -5 -6 -6 -5 -6 -7 -7 -6 -6 -6 -6 -7 -7 -7
-3 -4 -4 -3 -3 -3 -6 -5 -6 -6 -7 -7 -7 -6 -6 -7 -7 -7 -8 -8 -8 -7 -6 -7 -7 -5 -5 -7 -7 -7 -6 -6
-3 -4 -4 -4 -5 -5 -5 -6 -6 -6 -6 -6 -6 -6 -6 -6 -7 -7 -7 -7 -8 -7 -7 -7 -7 -6 -5 -5 -8 -8 -7 -7
-2 -2 -4 -4 -5 -5 -5 -5 -6 -6 -6 -6 -6 -6 -6 -6 -6 -6 -6 -7 -7 -8 -9 -9 -8 -7 -6 -6 -8 -8 -8 -7
-1 -3 -4 -5 -5 -5 -6 -5 -6 -6 -6 -6 -6 -6 -6 -6 -6 -6 -6 -7 -7 -8 -8 -9 -9 -7 -6 -5 -7 -9 -8 -7

GFSFLT1_850_temp_162.txt.gz
Temp
9 8 7 7 6 6 7 8 9 9 7 5 6 5 5 5 4 5 6 6 7 6 6 6 7 7 7 7 5 5 4 4
8 7 6 6 6 6 6 6 7 7 6 5 6 5 4 4 3 2 3 2 2 3 5 5 4 4 3 3 4 4 4 3
8 7 6 5 5 5 5 5 5 6 6 4 5 4 4 3 3 2 2 1 0 -0 3 4 4 4 5 4 2 1 1 0
9 7 6 5 4 3 3 3 3 4 5 3 4 3 3 3 2 2 1 0 -0 -1 2 3 4 4 4 3 2 1 -0 -0
9 7 6 5 3 3 2 2 2 2 3 4 3 3 2 2 1 2 0 0 -1 -2 1 2 1 1 2 2 1 0 -2 -2
8 7 6 4 3 2 1 2 1 1 2 2 2 2 2 1 1 1 1 1 -1 -2 1 1 0 -3 -3 -3 -3 -2 -3 -3
8 5 4 3 2 1 1 1 0 1 1 0 1 0 0 0 1 1 1 -0 -1 -1 0 -0 -1 -2 -3 -3 -4 -4 -4 -3
6 4 4 2 1 0 1 0 -0 -0 -1 -1 -1 -1 -1 -2 -1 -1 -2 -1 -2 -3 -2 -3 -4 -4 -4 -3 -3 -4 -4 -4
6 4 3 1 1 -0 -0 -0 -1 -1 -1 -2 -2 -2 -2 -3 -3 -2 -3 -3 -4 -5 -5 -4 -5 -5 -4 -3 -4 -5 -5 -5
4 2 1 -0 -1 -1 -2 -2 -2 -2 -2 -2 -2 -3 -3 -3 -4 -4 -5 -5 -5 -5 -5 -5 -5 -5 -4 -3 -4 -5 -6 -5
1 -0 -2 -2 -2 -3 -3 -3 -3 -1 -2 -3 -3 -4 -4 -4 -4 -5 -5 -6 -6 -5 -4 -5 -5 -4 -3 -4 -5 -6 -6 -7
0 -0 -1 -1 -1 -3 -3 -2 -1 -1 -1 -2 -4 -5 -4 -5 -5 -6 -6 -7 -5 -4 -4 -4 -5 -4 -3 -3 -6 -7 -6 -7
-1 -2 -1 -1 -1 -1 -1 -1 -1 -1 -1 -2 -4 -5 -5 -6 -6 -7 -5 -7 -5 -4 -4 -4 -4 -4 -4 -4 -6 -7 -7 -7
-2 -3 -4 -1 -1 -1 -1 -1 -2 -1 -1 -2 -3 -5 -4 -7 -7 -7 -6 -7 -6 -5 -4 -5 -5 -4 -4 -5 -8 -7 -7 -7
-2 -3 -4 -2 -1 -1 -2 -2 -2 -2 -2 -4 -6 -6 -5 -6 -7 -7 -7 -7 -6 -6 -6 -6 -5 -5 -5 -5 -6 -6 -6 -7
-1 -2 -3 -2 -1 -1 -2 -3 -4 -4 -5 -6 -6 -6 -6 -6 -6 -6 -7 -7 -7 -7 -6 -6 -6 -5 -5 -5 -6 -6 -7 -6
-2 -3 -4 -3 -2 -2 -4 -4 -5 -5 -5 -5 -6 -6 -6 -6 -6 -6 -6 -7 -7 -7 -7 -6 -7 -6 -6 -6 -7 -7 -7 -7
-2 -3 -3 -3 -4 -4 -4 -5 -5 -5 -5 -5 -6 -6 -6 -6 -6 -6 -6 -7 -7 -8 -7 -8 -6 -6 -6 -5 -6 -7 -7 -8
-1 -2 -3 -3 -4 -4 -4 -5 -5 -5 -5 -5 -6 -6 -6 -6 -6 -6 -6 -7 -7 -7 -8 -6 -7 -6 -6 -5 -5 -6 -7 -8

GFSFLT1_850_temp_165.txt.gz
Temp
9 8 7 7 7 6 7 8 8 9 8 9 8 6 5 4 5 6 7 7 8 9 8 8 8 8 8 8 8 8 7 8
9 9 8 7 6 5 5 5 7 8 8 8 7 6 4 4 4 4 5 5 7 7 6 6 7 6 5 5 6 7 7 6
8 7 7 6 6 4 4 4 6 6 7 6 6 3 3 3 3 3 3 2 4 4 5 5 6 5 5 5 4 5 4 2
8 7 6 5 5 4 3 3 5 5 6 6 5 4 3 3 3 2 1 1 2 3 3 4 4 5 4 3 4 3 3 -0
8 6 6 5 4 4 3 3 4 5 5 5 5 4 3 2 1 1 0 0 0 1 2 3 3 3 3 3 2 1 -1 -2
7 6 5 5 4 3 2 2 3 4 4 4 3 3 1 1 1 1 1 -0 -1 0 0 1 -0 -1 -0 -1 -1 -3 -4 -4
7 5 5 4 3 3 2 1 2 2 1 -0 1 0 0 0 1 1 0 -0 -1 -1 -0 -1 -2 -3 -3 -2 -4 -5 -4 -5
5 5 4 3 3 2 1 0 1 1 0 -1 -1 -1 -1 -1 -0 -0 -0 -0 -2 -2 -1 -1 -2 -2 -2 -3 -5 -5 -5 -5
5 4 3 2 1 1 0 -0 0 0 -1 -2 -1 -1 -2 -2 -2 -1 -2 -2 -3 -2 -2 -2 -2 -2 -2 -3 -6 -6 -6 -6
5 4 3 2 1 -0 -1 -1 0 -0 -1 -2 -2 -2 -2 -2 -2 -2 -2 -1 -2 -2 -2 -2 -2 -2 -3 -5 -6 -7 -7 -7
3 3 2 1 -0 -1 -1 -0 -0 -1 -1 -1 -2 -2 -3 -3 -3 -2 -2 -2 -2 -2 -3 -3 -3 -4 -4 -5 -6 -7 -7 -7
3 3 1 0 -0 -1 -1 -1 -0 -0 -1 -2 -2 -2 -3 -4 -3 -3 -2 -2 -3 -3 -4 -4 -4 -4 -4 -5 -7 -7 -7 -6
3 2 1 1 -0 -1 -1 -1 -0 -0 -1 -1 -2 -3 -3 -4 -4 -4 -3 -4 -4 -5 -5 -5 -5 -5 -5 -5 -7 -6 -6 -6
1 1 1 1 -0 -1 -1 -2 -1 -1 -2 -2 -4 -4 -4 -4 -5 -6 -5 -6 -6 -6 -6 -5 -5 -5 -6 -6 -7 -7 -7 -6
1 1 1 -0 -1 -1 -2 -2 -3 -3 -3 -4 -4 -5 -5 -5 -5 -6 -6 -6 -6 -6 -6 -6 -6 -6 -7 -7 -7 -7 -7 -7
-0 -0 -1 -2 -1 -2 -3 -3 -4 -4 -4 -5 -5 -6 -5 -6 -6 -6 -7 -7 -7 -7 -7 -7 -6 -5 -6 -6 -6 -6 -6 -7
-0 -1 -2 -2 -2 -2 -4 -4 -4 -5 -5 -5 -5 -6 -6 -6 -6 -6 -7 -7 -7 -7 -5 -6 -6 -5 -6 -5 -6 -6 -6 -6
-1 -1 -2 -2 -2 -3 -4 -4 -5 -5 -5 -5 -6 -6 -6 -6 -6 -6 -7 -7 -7 -6 -6 -5 -5 -5 -6 -6 -6 -6 -6 -6
-1 -1 -2 -3 -3 -4 -4 -4 -5 -5 -5 -5 -6 -6 -6 -6 -6 -6 -6 -7 -7 -7 -6 -5 -5 -5 -6 -6 -6 -6 -6 -6

GFSFLT1_850_temp_168.txt.gz
Temp
10 9 8 8 7 7 7 7 6 7 6 5 5 5 6 6 6 7 7 7 8 8 8 8 8 9 9 8 9 9 9 10
9 8 8 8 7 6 6 6 6 6 6 6 5 6 5 5 5 6 6 6 6 6 7 7 7 8 7 7 7 7 7 8
8 8 7 7 6 6 6 6 6 6 6 5 5 5 4 4 4 4 5 6 6 5 5 6 6 6 6 6 5 5 4 4
8 7 6 6 6 5 4 5 4 5 5 4 4 4 3 3 4 3 4 4 4 4 4 4 5 5 4 3 4 3 0 -2
7 6 5 5 5 5 4 4 4 3 4 4 4 4 4 3 2 1 1 2 3 3 3 3 4 3 3 2 2 0 -1 -2
7 5 5 5 5 4 3 4 3 2 3 3 3 3 3 2 1 1 0 -0 2 2 2 3 3 2 2 2 2 1 -1 -3
5 4 4 5 5 4 3 3 2 2 2 1 2 2 1 1 1 0 -0 -1 -0 0 1 1 2 1 1 1 -1 -2 -3 -5
4 4 5 5 5 4 3 3 1 1 1 1 0 0 1 1 -0 -1 -1 -1 -1 -1 -1 -0 -0 -1 -1 -2 -3 -4 -4 -5
5 6 6 4 3 3 2 2 1 1 0 -0 -1 -1 -1 -1 -1 -1 -1 -2 -2 -2 -1 -2 -2 -2 -3 -4 -7 -6 -6 -5
7 5 3 2 3 2 2 2 2 0 -0 -0 -1 -1 -1 -2 -2 -2 -1 -2 -2 -2 -2 -2 -3 -3 -3 -5 -6 -7 -6 -5
4 3 3 3 2 2 2 2 1 -0 -1 -1 -1 -2 -2 -2 -2 -2 -2 -2 -3 -3 -3 -3 -3 -3 -3 -4 -7 -6 -6 -5
3 2 2 2 2 2 2 1 0 -1 -1 -2 -3 -2 -2 -2 -2 -3 -3 -3 -4 -4 -3 -4 -4 -4 -5 -5 -6 -6 -5 -5
4 3 3 2 2 2 1 1 0 -0 -1 -2 -2 -2 -3 -3 -4 -4 -4 -4 -4 -4 -4 -4 -5 -5 -5 -5 -6 -6 -5 -5
2 2 2 1 1 1 0 -0 -0 -1 -1 -3 -3 -3 -4 -5 -5 -5 -5 -5 -5 -5 -4 -5 -5 -5 -5 -6 -6 -6 -6 -6
2 2 2 1 0 0 -0 -1 -1 -2 -3 -4 -5 -4 -5 -5 -6 -6 -6 -6 -5 -5 -5 -5 -5 -5 -6 -6 -6 -6 -6 -6
1 1 1 0 0 -0 -1 -2 -3 -3 -4 -5 -5 -5 -6 -6 -6 -6 -6 -5 -5 -5 -5 -6 -5 -5 -6 -6 -6 -6 -6 -6
1 1 -0 -0 -0 -1 -2 -3 -4 -4 -5 -5 -5 -5 -6 -6 -6 -6 -6 -5 -5 -5 -6 -6 -5 -5 -6 -6 -6 -6 -6 -6
1 0 0 1 -0 -2 -3 -4 -4 -5 -5 -6 -6 -6 -6 -6 -6 -6 -6 -6 -6 -6 -6 -6 -6 -6 -6 -6 -6 -6 -6 -6
1 1 0 0 -1 -2 -3 -4 -5 -5 -5 -6 -6 -6 -6 -5 -5 -6 -6 -6 -6 -6 -6 -6 -6 -6 -6 -6 -7 -7 -7 -7

GFSFLT1_850_temp_171.txt.gz
Temp
9 9 9 9 8 8 8 8 7 6 5 5 5 5 5 5 5 6 7 8 8 8 8 8 8 9 9 9 9 9 9 10
8 8 8 8 7 8 8 7 7 6 5 4 4 4 5 5 5 5 6 6 6 7 7 8 8 7 8 8 8 8 8 9
7 7 7 7 7 8 8 7 7 6 5 4 4 4 4 3 4 4 5 5 6 6 6 6 6 6 6 6 6 6 6 5
6 6 7 6 7 7 7 7 6 6 6 4 3 3 2 2 3 3 4 4 4 5 5 4 5 5 5 4 4 4 3 2
6 6 6 6 6 6 6 6 5 5 5 4 3 2 2 2 2 2 2 3 3 3 4 4 3 3 3 3 2 2 1 1
6 6 6 6 7 6 5 5 4 4 4 3 2 2 2 1 0 -0 1 2 2 2 3 3 2 2 2 1 1 1 -0 -1
5 5 5 7 5 4 4 4 3 3 2 2 2 1 1 0 1 1 1 1 1 1 1 1 1 1 1 1 -0 -0 -1 -2
4 4 6 7 5 3 3 3 2 2 2 1 1 2 1 -0 -0 -0 0 0 0 1 0 0 0 -0 -0 -0 -1 -1 -2 -2
5 7 6 4 3 3 3 2 1 1 0 0 1 -1 -0 -1 -1 -1 -1 -1 -1 -1 -1 -1 -1 -2 -1 -1 -2 -2 -2 -3
6 5 4 3 3 3 2 1 1 0 -0 -1 -1 -0 -1 -1 -1 -1 -1 -2 -2 -2 -2 -2 -3 -3 -2 -2 -3 -3 -3 -3
6 4 2 2 3 2 1 1 0 -0 -1 -1 -1 -1 -1 -2 -2 -2 -2 -3 -3 -3 -3 -3 -3 -3 -4 -4 -4 -4 -4 -4
4 3 2 2 2 1 1 0 -0 -0 -1 -1 -1 -1 -2 -3 -3 -3 -3 -3 -3 -3 -3 -4 -4 -4 -5 -5 -4 -5 -4 -5
3 2 2 1 1 1 0 0 -0 -0 -1 -2 -2 -2 -3 -3 -3 -3 -4 -4 -4 -4 -4 -4 -4 -5 -5 -5 -5 -5 -5 -5
2 1 1 1 1 0 0 0 -0 -1 -1 -2 -2 -3 -3 -3 -4 -4 -4 -4 -4 -4 -4 -4 -4 -4 -5 -5 -5 -5 -5 -5
2 1 0 0 0 -0 -0 -0 -1 -1 -2 -2 -2 -3 -4 -5 -5 -5 -5 -5 -5 -4 -4 -4 -5 -5 -5 -5 -5 -5 -5 -6
2 1 0 0 0 1 -0 -1 -2 -2 -2 -3 -3 -4 -5 -5 -5 -5 -5 -5 -5 -5 -4 -4 -5 -5 -5 -5 -5 -6 -6 -6
1 1 1 1 1 -1 -0 -2 -2 -2 -3 -3 -4 -5 -5 -6 -6 -6 -5 -5 -5 -5 -5 -5 -5 -5 -5 -5 -6 -6 -6 -6
-1 1 1 1 0 0 -1 -2 -2 -3 -3 -4 -5 -5 -5 -6 -6 -6 -5 -5 -5 -5 -4 -5 -5 -5 -5 -6 -6 -6 -6 -6
-0 1 1 1 -0 -1 -2 -2 -3 -4 -4 -5 -5 -5 -5 -6 -6 -5 -5 -5 -5 -5 -5 -5 -5 -5 -6 -6 -6 -7 -7 -7